Other Public Products
Issued by NWS Grand Forks, ND

Home | Current Version | Previous Version | Graphics & Text | Print | Product List | Glossary On
Versions: 1 2 3 4 5 6 7 8 9 10 11 12 13 14 15 16 17 18 19 20 21 22 23 24 25 26 27 28 29 30 31 32 33 34 35 36 37 38 39 40 41 42 43 44 45 46 47 48 49 50
000
FPUS83 KFGF 261610
OPUFGF
PRAIRIE TO PINES WEATHER ROUNDUP
NATIONAL WEATHER SERVICE EASTERN NORTH DAKOTA/GRAND FORKS ND
1000 AM CST MON JAN 26 2015

 **SATELLITE DATA USED TO AUGMENT SKY COVER AT AUTOMATED STATIONS**
 *****  WEATHER ACROSS EASTERN NORTH DAKOTA  *****

CITY           SKY/WX    TMP DP  RH WIND       PRES   REMARKS
GRAND FORKS    MOSUNNY   39  30  70 NW18G24   29.74R
GRAND FORKS AF SUNNY     39  30  71 NW17G24   29.75R
GRAND CITY NWS   N/A     37 N/A N/A NW12        N/A
BUXTON         NOT AVBL
DEVILS LAKE    SUNNY     36  28  75 NW15      29.80R
FARGO          MOSUNNY   39  31  72 NW14      29.75R
WAHPETON ARPT  SUNNY     36  32  87 W14       29.77R
$$

 *****  WEATHER ACROSS CENTRAL AND WESTERN NORTH DAKOTA  *****

CITY           SKY/WX    TMP DP  RH WIND       PRES   REMARKS
JAMESTOWN      SUNNY     38  31  76 NW18      29.82R
BISMARCK       SUNNY     41  32  70 NW9       29.93R
MINOT          MOSUNNY   39  30  70 W14       29.91R
MINOT AFB      MOSUNNY   36  35  96 W12       29.91R
GARRISON         N/A     39  32  76 W10       29.92R
WILLISTON      SUNNY     39  30  70 W5        29.96S
DICKINSON      SUNNY     38  32  79 W12       29.95R
HETTINGER      SUNNY     40  33  76 W12       29.99R
$$

 *****  OTHER OBSERVATIONS NORTHEAST NORTH DAKOTA  *****

CITY           SKY/WX    TMP DP  RH WIND       PRES   REMARKS
WALHALLA         N/A     36  34  93 N24G33    29.79R
LANGDON        FAIR      32  27  80 NW16      29.76R WCI  21
CAVALIER       CLOUDY    34  32  93 N17       29.77R WCI  23
GRAFTON        NOT AVBL
CANDO          FAIR      37  32  81 NW25G31   29.81R
FORT TOTTEN      N/A     36  30  78 NW7       29.95
ROLLA          FAIR      36  32  87 NW30G36   29.80R
RUGBY          FAIR      32  28  86 NW17      29.85R WCI  21
 ***** THE ABOVE OBSERVATIONS ARE NON NWS ARE NOT QUALITY
        CONTROLLED AND MAY MIS-REPORT RAIN FOR SNOW...
$$

 *****  OTHER OBSERVATIONS SOUTHEAST NORTH DAKOTA *****

CITY           SKY/WX    TMP DP  RH WIND       PRES   REMARKS
COOPERSTOWN    NOT AVBL
VALLEY CITY    FLURRIES  37  36  93 NW23G29   29.79R
OAKES            N/A     37  34  87 NW14      29.83R
GWINNER        SUNNY     39  34  81 NW17      29.82R
SHEYENNE NWR     N/A     39  32  75 NW12      29.95S
BUFFALO        NOT AVBL
WYNDMERE         N/A     37  34  87 W12         N/A
 ***** THE ABOVE OBSERVATIONS ARE NON NWS ARE NOT QUALITY
       CONTROLLED AND MAY MIS-REPORT RAIN FOR SNOW...
$$

  *****  WEATHER ACROSS NORTHERN MINNESOTA  *****

CITY           SKY/WX    TMP DP  RH WIND       PRES   REMARKS
FLAG ISLAND    DRIZZLE   30  28  93 NW18      29.62R WCI  18
WARROAD        CLOUDY    34  30  86 NW14G21   29.64R WCI  24
ROSEAU         LGT RAIN  36  30  80 NW17      29.65R
HALLOCK        PTSUNNY   36  30  80 NW26G32   29.72R
THF RVR FALLS  CLOUDY    36  32  87 NW18      29.70R
HALSTAD          N/A     37  30  75 NW13        N/A
FOSSTON        PTSUNNY   36  28  75 NW12      29.69R
BAUDETTE       CLOUDY    33  30  88 NW12      29.60R WCI  24
WASKISH        CLOUDY    34  30  86 SW7       29.62R
CROOKSTON      SUNNY     37  32  81 NW17      29.73R
$$
  *****  WEATHER ACROSS CENTRAL AND WEST MINNESOTA  *****

CITY           SKY/WX    TMP DP  RH WIND       PRES   REMARKS
BEMIDJI        CLOUDY    33  32  94 NW15G22   29.64R WCI  23
PARK RAPIDS    MOSUNNY   37  30  75 NW17      29.65R
WADENA         CLOUDY    32  30  93 W6        29.68S
DETROIT LAKES  PTSUNNY   34  32  93 NW15G22   29.72R WCI  24
MOORHEAD       MOSUNNY   39  36  87 NW17G26   29.75R
FERGUS FALLS   MOSUNNY   34  30  86 NW12      29.77R
ELBOW LAKE     FAIR      34  31  90 NW16      29.74R WCI  24
MORRIS MN      MOSUNNY   37  34  87 NW20      29.74R
STAPLES        CLOUDY    34  30  86 W9        29.68R
WHEATON        SUNNY     37  30  75 W18       29.79R
$$
  *****  WEATHER ELSEWHERE ACROSS MINNESOTA  *****

CITY           SKY/WX    TMP DP  RH WIND       PRES   REMARKS
DULUTH         LGT SNOW  22  19  89 SW7       29.62R FOG     WCI  13
INTRNTL FALLS  CLOUDY    29  26  89 W6        29.59R WCI  23
ELY            CLOUDY    21  18  86 S6        29.61R WCI  14
CLOQUET        CLOUDY    23  21  93 S5        29.63S FOG     WCI  17
BRAINERD       CLOUDY    34  29  82 W12       29.66R
HIBBING        LGT SNOW  24  20  84 SE3       29.60S VSB 1
ALEXANDRIA     SUNNY     35  30  82 W18       29.72R WCI  24
SAINT CLOUD    SUNNY     36  30  79 NW16      29.69R
MINNEAPOLIS    PTSUNNY   34  29  82 SW8       29.69F
$$

  *****  WEATHER ACROSS SOUTH DAKOTA  *****

CITY           SKY/WX    TMP DP  RH WIND       PRES   REMARKS
SIOUX FALLS    MOSUNNY   40  35  83 NW13G21   29.85R
BROOKINGS      NOT AVBL
WATERTOWN      SUNNY     37  31  78 W12       29.82R
HURON          SUNNY     41  35  79 NW15      29.89R
SISSETON         N/A     40  33  76 NW22G30   29.79R
ABERDEEN       SUNNY     39  32  76 W9        29.87R
MITCHELL       MOSUNNY   42  36  79 W13       29.91R
PIERRE         SUNNY     45  34  65 W12       29.96R
MOBRIDGE       SUNNY     41  35  79 NW9       29.91R
RAPID CITY     SUNNY     57  29  34 NW5       30.05R
$$

  *****  SOME WEATHER IN NEARBY STATES *****

CITY           SKY/WX    TMP DP  RH WIND       PRES   REMARKS
GLASGOW MT     PTCLDY    35  31  85 CALM      29.97S
GREAT FALLS MT MOCLDY    56  27  32 SW23G30   30.02S
CHEYENNE WY    SUNNY     52  22  30 W8        30.26R
SCOTTSBLUFF NE SUNNY     43  32  65 NW7       30.18R
OMAHA NE       MOSUNNY   43  34  70 NW12      29.88S
DES MOINES IA  CLOUDY    38  30  73 W16       29.81F
DAVENPORT IA   LGT SNOW  21  18  88 S9        29.93R VSB 3/4 WCI  11
CHICAGO IL     CLOUDY    23  15  71 SW3       29.94F
EAU CLAIRE WI  CLOUDY    22  19  89 SE7       29.73S FOG     WCI  13
LA CROSSE WI   CLOUDY    24  19  81 S10       29.79F WCI  14
$$

  *****  SOME NATIONAL WEATHER *****

CITY           SKY/WX    TMP DP  RH WIND       PRES   REMARKS
LA GUARDIA NY  LGT SNOW  24  19  81 NE23G31   29.99F VSB 1   WCI   9
RALEIGH NC     PTSUNNY   46  41  82 NE5       29.65S
ATLANTA GA     PTSUNNY   44  37  76 NW20G28   29.85R
NEW ORLEANS LA MOSUNNY   52  35  52 N14G23    30.16R
OKLAHOMA CITY  SUNNY     48  32  53 SW9       30.13S
ALBUQUERQUE NM MOSUNNY   35  25  66 W5        30.39R
SALT LAKE CITY SUNNY     35  30  82 E7        30.39S
LOS ANGELES CA CLOUDY    66  35  31 E7        29.99R
BOISE ID       CLEAR     32  29  88 CALM      30.33F
SEATTLE WA     FOG       44  43  96 CALM      29.96R VSB 3/4
$$

*** WEATHER ACROSS MANITOBA...SASKATCHEWAN AND ONTARIO ***
                ***ONTARIO***

CITY           SKY/WX    TMP DP  RH WIND       PRES   REMARKS
GERALDTON      LGT SNOW  10   7  85 E5        29.79  WCI   2
THUNDER BAY    LGT SNOW  23  23 100 E3        29.74S
SIOUX LOOKOUT  FLURRIES  18  16  93 SE5       29.62R WCI  11
TORONTO        PTSUNNY   12   0  57 NE12      30.02S WCI  -2
BIG TROUT LK   SUNNY      0  -4  85 E5        29.80R WCI -10
PICKLE LAKE    LGT SNOW  12   7  79 SE7       29.68R WCI   2
DRYDEN         CLOUDY    19  18  93 E3        29.60R
KENORA         FLURRIES  23  21  93 N12       29.61R WCI  12
$$
                *** MANITOBA***

CITY           SKY/WX    TMP DP  RH WIND       PRES   REMARKS
BRANDON        PTSUNNY   28  25  86 W14       29.84R WCI  17
DAUPHIN        PTSUNNY   21  19  93 S3        29.87R
ISLAND LAKE    PTSUNNY    9   5  85 N3        29.77R
PILOT MOUND      N/A     36  30  80 NW22        N/A
THE PAS        CLOUDY    14   9  79 CALM      29.83S
THOMPSON       CLOUDY     5   1  85 VRB2      29.83S
WINNIPEG       CLOUDY    30  25  80 NW20      29.78R WCI  18
LYNN LAKE      LGT SNOW   7   5  92 S3        29.74F
CHURCHILL      PTCLDY   -15 -20  76 CALM      29.91R
GILLAM         CLOUDY    -4  -8  84 CALM      29.85R
$$
                ***SASKATCHEWAN***

CITY           SKY/WX    TMP DP  RH WIND       PRES   REMARKS
ESTEVAN        CLOUDY    36  30  80 W10       29.92R
KINDERSLEY     MOCLDY    28  25  86 SE8       29.87S WCI  20
LLOYDMINSTER   MOCLDY    32  27  80 W9        29.83S WCI  24
PRINCE ALBERT  CLOUDY    30  27  86 SW5       29.84S
REGINA         MOCLDY    34  30  86 W5        29.91R


USA.gov is the U.S. government's official web portal to all federal, state and local government web resources and services.